Location: N�rnberg
(49.4489°N, 11.0797°E)
Time: 10:12:52
(UTC+01:00)

Tiangong 2 - Visible Passes

Search period start: 25 November 2017 00:00
Search period end: 05 December 2017 00:00
Orbit: 386 x 392 km, 42.8° (Epoch: 24 November)

Date Brightness Start Highest point End Pass type
(mag) Time Alt. Az. Time Alt. Az. Time Alt. Az.
27 Nov 4.1 06:50:39 10° SSW 06:52:22 14° SSE 06:54:07 10° SE visible
29 Nov 3.7 06:30:09 10° SSW 06:32:26 18° SSE 06:34:44 10° ESE visible
30 Nov 3.8 05:33:20 13° S 05:34:24 14° SSE 05:36:12 10° SE visible
30 Nov 3.2 07:07:56 10° SW 07:10:37 24° S 07:13:17 10° ESE visible
01 Dec 3.2 06:10:23 12° SW 06:12:30 22° S 06:15:03 10° ESE visible
02 Dec 3.6 05:14:59 18° SSE 05:14:59 18° SSE 05:16:43 10° ESE visible
02 Dec 3.0 06:48:00 10° WSW 06:50:40 24° S 06:53:20 10° SE visible
03 Dec 2.8 05:51:49 22° SSW 05:52:31 24° S 05:55:11 10° ESE visible
04 Dec 4.2 04:56:17 14° SE 04:56:17 14° SE 04:56:57 10° ESE visible
04 Dec 3.0 06:28:35 13° WSW 06:30:40 22° S 06:33:14 10° SE visible
